Location: Unspecified
(44.0704°N, 88.6889°W)
Time: 02:57:54
(UTC+02:00)

Transit 4A - All Passes

Search period start: 17 June 2019 00:00
Search period end: 27 June 2019 00:00
Orbit: 862 x 983 km, 66.8° (Epoch: 16 June)

Date Brightness Start Highest point End Pass type
(mag) Time Alt. Az. Time Alt. Az. Time Alt. Az.
17 Jun - 00:16:34 10° NNW 00:21:25 22° NE 00:26:11 10° E daylight
17 Jun - 02:02:20 10° NNW 02:08:47 85° ENE 02:15:02 10° SSE daylight
17 Jun - 03:50:22 10° WNW 03:54:18 17° WSW 03:58:12 10° SW daylight
17 Jun - 15:27:29 10° SE 15:30:50 15° ESE 15:34:14 10° ENE daylight
17 Jun - 17:09:57 10° SSW 17:16:15 86° ESE 17:22:42 10° NNE daylight
17 Jun - 18:58:26 10° W 19:03:27 24° NW 19:08:33 10° NNE daylight
17 Jun - 22:41:25 10° N 22:42:21 10° NNE 22:43:16 10° NNE daylight
18 Jun - 00:25:42 10° NNW 00:31:09 28° NE 00:36:29 10° E daylight
18 Jun - 02:11:45 10° NW 02:18:06 69° WSW 02:24:17 10° SSE daylight
18 Jun - 04:01:47 10° W 04:03:16 11° W 04:04:45 10° WSW daylight
18 Jun - 15:35:07 10° SSE 15:39:51 23° ESE 15:44:38 10° ENE daylight
18 Jun - 17:19:21 10° SW 17:25:38 69° NW 17:32:03 10° NNE daylight
18 Jun - 19:08:53 10° WNW 19:13:15 19° NNW 19:17:40 10° N daylight
18 Jun - 22:49:52 10° N 22:52:22 12° NNE 22:54:51 10° NE daylight
19 Jun - 00:34:54 10° NNW 00:40:48 37° NE 00:46:33 10° ESE daylight
19 Jun - 02:21:16 10° NW 02:27:21 48° WSW 02:33:16 10° S daylight
19 Jun - 15:43:26 10° S 15:48:56 33° ESE 15:54:33 10° NE daylight
19 Jun - 17:29:00 10° SW 17:35:06 50° NW 17:41:21 10° NNE daylight
19 Jun - 19:19:35 10° WNW 19:23:08 15° NNW 19:26:42 10° N daylight
19 Jun - 22:58:47 10° N 23:02:20 15° NNE 23:05:50 10° ENE daylight
20 Jun - 00:44:08 10° NNW 00:50:21 50° NE 00:56:25 10° SE daylight
20 Jun - 02:30:56 10° NW 02:36:30 33° WSW 02:41:57 10° S daylight
20 Jun - 15:52:07 10° S 15:58:06 48° ESE 16:04:14 10° NE daylight
20 Jun - 17:38:51 10° WSW 17:44:39 37° NW 17:50:35 10° NNE daylight
20 Jun - 19:30:34 10° NW 19:33:05 12° NNW 19:35:37 10° N daylight
20 Jun - 23:07:49 10° N 23:12:12 19° NNE 23:16:32 10° ENE daylight
21 Jun - 00:53:25 10° NNW 00:59:50 69° NE 01:06:02 10° SE daylight
21 Jun - 02:40:52 10° WNW 02:45:36 22° WSW 02:50:14 10° SSW daylight
21 Jun - 14:20:30 10° ESE 14:22:10 11° E 14:23:49 10° E daylight
21 Jun - 16:01:07 10° SSW 16:07:21 70° ESE 16:13:44 10° NE daylight
21 Jun - 17:48:55 10° W 17:54:19 28° NW 17:59:46 10° NNE daylight
21 Jun - 19:42:08 10° NNW 19:43:07 10° NNW 19:44:05 10° N daylight
21 Jun - 23:16:55 10° NNW 23:22:00 24° NE 23:26:58 10° E daylight
22 Jun - 01:02:46 10° NNW 01:09:13 86° WSW 01:15:26 10° SSE daylight
22 Jun - 02:51:18 10° WNW 02:54:36 15° WSW 02:57:52 10° SW daylight
22 Jun - 14:27:09 10° SE 14:31:08 18° ESE 14:35:09 10° ENE daylight
22 Jun - 16:10:22 10° SSW 16:16:40 84° WNW 16:23:09 10° NNE daylight
22 Jun - 17:59:14 10° W 18:04:02 22° NW 18:08:54 10° NNE daylight
22 Jun - 21:41:24 10° N 21:43:02 11° NNE 21:44:38 10° NNE daylight
22 Jun - 23:26:05 10° NNW 23:31:42 31° NE 23:37:11 10° ESE daylight
23 Jun - 01:12:14 10° NW 01:18:31 61° WSW 01:24:35 10° SSE daylight
23 Jun - 14:35:06 10° SSE 14:40:10 26° ESE 14:45:19 10° NE daylight
23 Jun - 16:19:51 10° SW 16:26:06 61° NW 16:32:29 10° NNE daylight
23 Jun - 18:09:46 10° WNW 18:13:52 17° NNW 18:17:59 10° N daylight
23 Jun - 21:50:08 10° N 21:53:01 13° NNE 21:55:54 10° NE daylight
23 Jun - 23:35:17 10° NNW 23:41:19 41° NE 23:47:11 10° ESE daylight
24 Jun - 01:21:48 10° NW 01:27:43 42° WSW 01:33:28 10° S daylight
24 Jun - 14:43:34 10° S 14:49:17 38° ESE 14:55:08 10° NE daylight
24 Jun - 16:29:34 10° WSW 16:35:36 45° NW 16:41:45 10° NNE daylight
24 Jun - 18:20:33 10° WNW 18:23:46 14° NNW 18:26:59 10° N daylight
24 Jun - 21:59:06 10° N 22:02:57 16° NNE 22:06:46 10° ENE daylight
24 Jun - 23:44:32 10° NNW 23:50:50 56° NE 23:56:57 10° SE daylight
25 Jun - 01:31:33 10° NW 01:36:51 29° WSW 01:42:01 10° SSW daylight
25 Jun - 14:52:22 10° S 14:58:29 55° ESE 15:04:44 10° NE daylight
25 Jun - 16:39:30 10° WSW 16:45:11 33° NW 16:50:58 10° NNE daylight
25 Jun - 18:31:41 10° NW 18:33:45 11° NNW 18:35:50 10° N daylight
25 Jun - 22:08:10 10° NNW 22:12:48 20° NE 22:17:22 10° E daylight
25 Jun - 23:53:51 10° NNW 00:00:17 78° ENE 00:06:30 10° SE daylight
26 Jun - 01:41:37 10° WNW 01:45:54 19° WSW 01:50:07 10° SSW daylight
26 Jun - 13:19:37 10° SE 13:22:27 13° E 13:25:17 10° ENE daylight
26 Jun - 15:01:28 10° SSW 15:07:45 79° ESE 15:14:13 10° NE daylight
26 Jun - 16:49:40 10° W 16:54:52 26° NW 17:00:07 10° NNE daylight
26 Jun - 22:17:17 10° NNW 22:22:34 26° NE 22:27:44 10° E daylight
